Location: Calberlah
(52.4230°N, 10.6240°E)
Time: 00:30:50
(UTC+00:00)

Spot 4 - Pass Details

Date: 19 May 2025
Orbit: 699 x 715 km, 98.3° (Epoch: 22 June)

Event Time Altitude Azimuth Distance (km) Brightness Sun altitude
Exits shadow 22:56:51 28° 205° (SSW) 1,294 4.7 -17.5°
Maximum altitude 22:58:56 46° 261° (W) 942 4.4 -17.5°
Drops below altitude 10° 23:03:33 10° 335° (NNW) 2,187 7.4 -17.6°
Sets 23:05:55 0° 342° (NNW) 3,113 8.6 -17.6°
